JTD635 ESSA-LGRP

Flight info

Callsign JTD635
Flight time N/A
Altitude 35000
Route BABAP T316 NEPVA DCT OLANU/N0460F360 DCT PENOR/N0462F370 N133 IRLUN DCT PENEX DCT NUBLI DCT ORTEB DCT LENOV DCT NARKA DCT ORA DCT GANNA DCT SODGO DCT OVDOT DCT LOMOS DCT WAK DCT NIKTI DCT STINO DCT MES UN139 LURUS UL995 CODIC
Aircraft B738/M-SDE2E3FGHIRWXY/LB1

Departure

Time 2026-05-06 12:02
Airport Stockholm-Arlanda Airport (ESSA)

Arrival

Time N/A
Airport Rhodes International Airport "Diagoras" (LGRP)
Time Latitude Longitude Altitude Speed Heading
2026-05-06 11:39 59.64726 17.92596 115 ft 0 kts 34°
2026-05-06 11:50 59.64714 17.92580 110 ft 2 kts 34°
2026-05-06 11:50 59.64701 17.92562 115 ft 2 kts 32°
2026-05-06 11:51 59.64686 17.92556 111 ft 2 kts 304°
2026-05-06 11:51 59.64684 17.92559 111 ft 0 kts 285°
2026-05-06 11:54 59.64684 17.92557 114 ft 1 kts 285°
2026-05-06 11:55 59.64690 17.92515 114 ft 4 kts 285°
2026-05-06 11:55 59.64697 17.92464 111 ft 4 kts 284°
2026-05-06 11:55 59.64704 17.92412 114 ft 4 kts 286°
2026-05-06 11:55 59.64712 17.92362 111 ft 4 kts 286°
2026-05-06 11:56 59.64720 17.92308 114 ft 5 kts 286°
2026-05-06 11:56 59.64734 17.92215 113 ft 10 kts 286°
2026-05-06 11:56 59.64775 17.92075 113 ft 15 kts 342°
2026-05-06 11:56 59.64882 17.92102 114 ft 16 kts 10°
2026-05-06 11:57 59.64996 17.92143 114 ft 17 kts 10°
2026-05-06 11:57 59.65111 17.92185 117 ft 16 kts 11°
2026-05-06 11:57 59.65221 17.92223 117 ft 16 kts
2026-05-06 11:57 59.65327 17.92262 114 ft 15 kts 10°
2026-05-06 11:58 59.65429 17.92299 118 ft 15 kts 11°
2026-05-06 11:58 59.65527 17.92335 118 ft 14 kts 10°
2026-05-06 11:58 59.65620 17.92369 119 ft 13 kts 10°
2026-05-06 11:58 59.65710 17.92402 118 ft 13 kts 11°
2026-05-06 11:59 59.65797 17.92433 120 ft 13 kts 10°
2026-05-06 11:59 59.65881 17.92464 121 ft 12 kts 11°
2026-05-06 11:59 59.65964 17.92494 121 ft 12 kts 10°
2026-05-06 11:59 59.66045 17.92523 120 ft 12 kts 10°
2026-05-06 12:00 59.66126 17.92552 122 ft 12 kts 10°
2026-05-06 12:00 59.66206 17.92582 123 ft 12 kts 12°
2026-05-06 12:00 59.66295 17.92615 123 ft 14 kts 11°
2026-05-06 12:00 59.66395 17.92651 124 ft 15 kts
2026-05-06 12:01 59.66498 17.92633 120 ft 15 kts 340°
2026-05-06 12:01 59.66590 17.92562 124 ft 14 kts 331°
2026-05-06 12:01 59.66601 17.92397 122 ft 14 kts 234°
2026-05-06 12:01 59.66491 17.92324 120 ft 35 kts 191°
2026-05-06 12:02 59.66002 17.92146 121 ft 106 kts 190°
2026-05-06 12:02 59.65070 17.91798 137 ft 162 kts 192°
2026-05-06 12:02 59.63889 17.91343 678 ft 178 kts 193°
2026-05-06 12:02 59.62654 17.90855 1514 ft 186 kts 193°
2026-05-06 12:03 59.61337 17.90522 2147 ft 199 kts 184°
2026-05-06 12:03 59.59918 17.90388 2727 ft 208 kts 184°
2026-05-06 12:03 59.58440 17.90226 3372 ft 214 kts 184°
2026-05-06 12:03 59.56957 17.90561 4046 ft 221 kts 159°
2026-05-06 12:04 59.55660 17.92224 4863 ft 226 kts 138°
2026-05-06 12:04 59.54578 17.94435 5672 ft 230 kts 130°
2026-05-06 12:04 59.53929 17.97323 6461 ft 235 kts 96°
2026-05-06 12:04 59.54147 18.00522 7048 ft 248 kts 64°
2026-05-06 12:05 59.55257 18.03294 7329 ft 271 kts 41°
2026-05-06 12:05 59.56709 18.05779 7999 ft 280 kts 38°
2026-05-06 12:05 59.58210 18.08302 8754 ft 286 kts 39°
2026-05-06 12:05 59.59718 18.10900 9592 ft 290 kts 39°
2026-05-06 12:06 59.61204 18.13672 10313 ft 300 kts 49°
2026-05-06 12:06 59.62204 18.17460 10579 ft 326 kts 69°
2026-05-06 12:06 59.62968 18.21870 10768 ft 351 kts 70°
2026-05-06 12:06 59.63749 18.26609 10941 ft 374 kts 70°
2026-05-06 12:07 59.64595 18.31615 11144 ft 393 kts 70°
2026-05-06 12:07 59.65493 18.36800 11645 ft 403 kts 70°
2026-05-06 12:07 59.66084 18.42260 12242 ft 412 kts 88°
2026-05-06 12:07 59.65689 18.47870 12891 ft 416 kts 109°
2026-05-06 12:08 59.64355 18.52938 13498 ft 418 kts 131°
2026-05-06 12:08 59.62257 18.56867 14054 ft 416 kts 150°
2026-05-06 12:08 59.59671 18.59283 14699 ft 409 kts 166°
2026-05-06 12:08 59.56970 18.61043 15404 ft 409 kts 167°
2026-05-06 12:09 59.54250 18.62779 16028 ft 412 kts 167°
2026-05-06 12:09 59.51526 18.64546 16648 ft 415 kts 167°
2026-05-06 12:09 59.48780 18.66372 17278 ft 417 kts 167°
2026-05-06 12:09 59.46029 18.68220 17888 ft 419 kts 167°
2026-05-06 12:10 59.43275 18.69828 18429 ft 415 kts 177°
2026-05-06 12:10 59.40439 18.69873 18930 ft 403 kts 195°
2026-05-06 12:10 59.37748 18.68533 19503 ft 397 kts 202°
2026-05-06 12:10 59.35105 18.66957 20041 ft 398 kts 203°
2026-05-06 12:11 59.32444 18.65392 20524 ft 401 kts 202°
2026-05-06 12:11 59.29754 18.63868 21015 ft 403 kts 202°
2026-05-06 12:11 59.27053 18.62385 21521 ft 405 kts 201°
2026-05-06 12:11 59.24248 18.61373 21973 ft 415 kts 193°
2026-05-06 12:12 59.21352 18.60941 22439 ft 418 kts 191°
2026-05-06 12:12 59.18445 18.60535 22882 ft 420 kts 192°
2026-05-06 12:12 59.15525 18.60113 23309 ft 422 kts 192°
2026-05-06 12:12 59.12595 18.59672 23697 ft 424 kts 192°
2026-05-06 12:13 59.09646 18.59218 24047 ft 425 kts 192°
2026-05-06 12:13 59.06700 18.58758 24443 ft 425 kts 192°
2026-05-06 12:13 59.03757 18.58297 24832 ft 425 kts 192°
2026-05-06 12:13 59.00807 18.57834 25185 ft 426 kts 192°
2026-05-06 12:14 58.97855 18.57372 25522 ft 427 kts 192°
2026-05-06 12:14 58.94893 18.56906 25859 ft 427 kts 193°
2026-05-06 12:14 58.91977 18.56076 26163 ft 421 kts 199°
2026-05-06 12:14 58.89221 18.54507 26475 ft 417 kts 204°
2026-05-06 12:15 58.86424 18.52758 26909 ft 415 kts 204°
2026-05-06 12:15 58.83711 18.51124 27423 ft 413 kts 201°
2026-05-06 12:15 58.80878 18.50086 27950 ft 416 kts 193°
2026-05-06 12:15 58.77972 18.49835 28451 ft 421 kts 186°
2026-05-06 12:16 58.75052 18.49979 28924 ft 418 kts 186°
2026-05-06 12:16 58.72150 18.50100 29378 ft 416 kts 186°
2026-05-06 12:16 58.69270 18.50202 29848 ft 413 kts 186°
2026-05-06 12:16 58.66401 18.50291 30288 ft 410 kts 186°
2026-05-06 12:17 58.63553 18.50371 30632 ft 409 kts 186°
2026-05-06 12:17 58.60705 18.50445 30923 ft 409 kts 186°
2026-05-06 12:17 58.57862 18.50516 31221 ft 409 kts 186°
2026-05-06 12:17 58.55023 18.50588 31560 ft 407 kts 186°
2026-05-06 12:18 58.52197 18.50660 31921 ft 405 kts 186°
2026-05-06 12:18 58.49383 18.50732 32249 ft 404 kts 186°
2026-05-06 12:18 58.46564 18.50804 32538 ft 404 kts 186°
2026-05-06 12:18 58.43759 18.50875 32849 ft 403 kts 186°
2026-05-06 12:19 58.40960 18.50947 33180 ft 401 kts 186°
2026-05-06 12:19 58.38168 18.51019 33493 ft 400 kts 186°
2026-05-06 12:19 58.35390 18.51090 33781 ft 399 kts 186°
2026-05-06 12:19 58.32608 18.51160 34071 ft 398 kts 186°
2026-05-06 12:20 58.29835 18.51230 34257 ft 399 kts 186°
2026-05-06 12:20 58.27043 18.51298 34368 ft 402 kts 186°
2026-05-06 12:20 58.24274 18.51365 34510 ft 404 kts 186°
2026-05-06 12:20 58.21464 18.51435 34695 ft 404 kts 186°
2026-05-06 12:21 58.18643 18.51506 34842 ft 406 kts 185°
2026-05-06 12:21 58.15818 18.51577 34984 ft 407 kts 185°
2026-05-06 12:21 58.12978 18.51649 35143 ft 408 kts 185°
2026-05-06 12:21 58.10132 18.51721 35296 ft 409 kts 185°
2026-05-06 12:22 58.07279 18.51793 35439 ft 411 kts 185°
2026-05-06 12:22 58.04420 18.51864 35593 ft 412 kts 185°
2026-05-06 12:22 58.01550 18.51937 35747 ft 413 kts 185°
2026-05-06 12:22 57.98677 18.52009 35895 ft 414 kts 185°
2026-05-06 12:23 57.95788 18.52081 36035 ft 415 kts 185°
2026-05-06 12:23 57.93872 18.52129 36112 ft 416 kts 185°
2026-05-06 12:23 57.90977 18.52200 36217 ft 418 kts 185°
2026-05-06 12:23 57.88059 18.52273 36368 ft 419 kts 185°
2026-05-06 12:24 57.86205 18.52319 36469 ft 419 kts 185°
2026-05-06 12:24 57.83290 18.52392 36613 ft 420 kts 185°
2026-05-06 12:24 57.80368 18.52465 36759 ft 421 kts 185°
2026-05-06 12:24 57.77442 18.52538 36910 ft 421 kts 185°
2026-05-06 12:25 57.71556 18.52682 37018 ft 424 kts 185°
2026-05-06 12:25 57.65654 18.52829 37014 ft 423 kts 184°
2026-05-06 12:26 57.59781 18.52976 37013 ft 421 kts 184°
2026-05-06 12:26 57.53933 18.53120 37009 ft 420 kts 184°
2026-05-06 12:27 57.48105 18.53262 37011 ft 418 kts 184°
2026-05-06 12:27 57.42318 18.53402 37002 ft 418 kts 184°
2026-05-06 12:28 57.36503 18.53541 36993 ft 418 kts 184°
2026-05-06 12:28 57.30676 18.53681 36991 ft 418 kts 184°
2026-05-06 12:29 57.24854 18.53821 36987 ft 419 kts 184°
2026-05-06 12:29 57.19018 18.53960 36985 ft 420 kts 184°
2026-05-06 12:30 57.13158 18.54100 36988 ft 421 kts 184°
2026-05-06 12:30 57.07299 18.54240 36982 ft 421 kts 184°
2026-05-06 12:31 57.01473 18.54378 36976 ft 422 kts 184°
2026-05-06 12:31 56.95599 18.54517 36973 ft 422 kts 183°
2026-05-06 12:32 56.89724 18.54656 36969 ft 422 kts 183°
2026-05-06 12:32 56.83846 18.54795 36963 ft 422 kts 183°
2026-05-06 12:33 56.77979 18.54933 36962 ft 422 kts 183°
2026-05-06 12:33 56.72108 18.55070 36957 ft 422 kts 183°
2026-05-06 12:34 56.66240 18.55207 36958 ft 421 kts 183°
2026-05-06 12:34 56.60377 18.55343 36954 ft 421 kts 183°
2026-05-06 12:35 56.54558 18.55478 36951 ft 421 kts 183°
2026-05-06 12:35 56.48700 18.55613 36939 ft 421 kts 182°
2026-05-06 12:36 56.42854 18.55747 36943 ft 420 kts 182°
2026-05-06 12:36 56.37000 18.55882 36940 ft 420 kts 182°
2026-05-06 12:37 56.31156 18.56015 36935 ft 420 kts 182°
2026-05-06 12:37 56.25307 18.56148 36933 ft 420 kts 182°
2026-05-06 12:38 56.19462 18.56281 36930 ft 420 kts 182°
2026-05-06 12:38 56.13657 18.56413 36927 ft 420 kts 182°
2026-05-06 12:39 56.07811 18.56545 36927 ft 420 kts 182°
2026-05-06 12:39 56.01959 18.56676 36929 ft 421 kts 182°
2026-05-06 12:40 55.96105 18.56808 36911 ft 421 kts 182°
2026-05-06 12:40 55.90236 18.56939 36920 ft 422 kts 182°
2026-05-06 12:41 55.84355 18.57070 36914 ft 422 kts 182°
2026-05-06 12:41 55.78478 18.57201 36911 ft 423 kts 182°
2026-05-06 12:42 55.72587 18.57332 36902 ft 423 kts 182°
2026-05-06 12:42 55.66734 18.57461 36908 ft 424 kts 182°
2026-05-06 12:43 55.60834 18.57591 36905 ft 424 kts 182°
2026-05-06 12:43 55.54927 18.57721 36896 ft 425 kts 181°
2026-05-06 12:44 55.49017 18.57851 36900 ft 425 kts 182°
2026-05-06 12:44 55.43086 18.57981 36889 ft 425 kts 182°
2026-05-06 12:45 55.37192 18.58109 36888 ft 426 kts 182°
2026-05-06 12:46 55.28300 18.58302 36878 ft 426 kts 182°
2026-05-06 12:46 55.22369 18.58431 36880 ft 426 kts 182°
2026-05-06 12:47 55.16439 18.58559 36865 ft 426 kts 182°
2026-05-06 12:47 55.10546 18.58686 36870 ft 425 kts 182°
2026-05-06 12:48 55.04623 18.58813 36868 ft 425 kts 182°
2026-05-06 12:48 54.98707 18.58939 36860 ft 425 kts 182°
2026-05-06 12:49 54.92789 18.59066 36853 ft 424 kts 182°
2026-05-06 12:49 54.86887 18.59191 36858 ft 424 kts 182°
2026-05-06 12:50 54.80978 18.59316 36841 ft 424 kts 182°
2026-05-06 12:50 54.75119 18.59440 36847 ft 423 kts 182°
2026-05-06 12:51 54.69231 18.59564 36839 ft 423 kts 182°
2026-05-06 12:51 54.63347 18.59688 36839 ft 423 kts 182°
2026-05-06 12:52 54.57466 18.59811 36832 ft 422 kts 182°
2026-05-06 12:52 54.51587 18.59934 36835 ft 422 kts 182°
2026-05-06 12:53 54.45707 18.60056 36834 ft 423 kts 182°
2026-05-06 12:53 54.39823 18.60179 36834 ft 423 kts 182°
2026-05-06 12:54 54.33936 18.60300 36837 ft 424 kts 182°
2026-05-06 12:54 54.28035 18.60422 36816 ft 424 kts 182°
2026-05-06 12:55 54.22122 18.60544 36820 ft 424 kts 182°
2026-05-06 12:55 54.16214 18.60665 36829 ft 425 kts 182°
2026-05-06 12:56 54.10301 18.60786 36817 ft 425 kts 182°
2026-05-06 12:56 54.04429 18.60906 36807 ft 425 kts 182°
2026-05-06 12:57 53.98511 18.61027 36799 ft 425 kts 182°
2026-05-06 12:57 53.92592 18.61147 36793 ft 425 kts 182°
2026-05-06 12:58 53.86686 18.61267 36783 ft 424 kts 182°
2026-05-06 12:58 53.80777 18.61386 36783 ft 424 kts 182°
2026-05-06 12:59 53.74873 18.61939 36777 ft 428 kts 174°
2026-05-06 12:59 53.69128 18.64769 36779 ft 432 kts 165°
2026-05-06 13:00 53.63445 18.68097 36772 ft 432 kts 165°
2026-05-06 13:00 53.57757 18.71389 36767 ft 432 kts 166°
2026-05-06 13:01 53.52103 18.74615 36770 ft 432 kts 166°
2026-05-06 13:01 53.46410 18.77841 36766 ft 432 kts 166°
2026-05-06 13:02 53.40712 18.81058 36767 ft 432 kts 166°
2026-05-06 13:02 53.35006 18.84270 36751 ft 433 kts 166°
2026-05-06 13:03 53.29300 18.87475 36757 ft 433 kts 166°
2026-05-06 13:03 53.23577 18.90681 36758 ft 433 kts 166°
2026-05-06 13:04 53.17851 18.93878 36755 ft 434 kts 166°
2026-05-06 13:04 53.12123 18.97068 36748 ft 434 kts 166°
2026-05-06 13:05 53.06417 19.00237 36752 ft 435 kts 166°
2026-05-06 13:05 53.00661 19.03425 36739 ft 436 kts 166°
2026-05-06 13:06 52.94902 19.06605 36746 ft 437 kts 166°
2026-05-06 13:06 52.89169 19.09763 36740 ft 437 kts 166°
2026-05-06 13:07 52.83393 19.12935 36747 ft 437 kts 166°
2026-05-06 13:07 52.77613 19.16100 36741 ft 437 kts 166°
2026-05-06 13:08 52.71826 19.19261 36747 ft 437 kts 166°
2026-05-06 13:08 52.66048 19.22408 36740 ft 437 kts 167°
2026-05-06 13:09 52.60259 19.25554 36742 ft 437 kts 167°
2026-05-06 13:09 52.54479 19.28672 36744 ft 437 kts 167°
2026-05-06 13:10 52.48709 19.31680 36741 ft 437 kts 167°
2026-05-06 13:10 52.43882 19.34171 36747 ft 437 kts 167°
2026-05-06 13:11 52.38081 19.37165 36744 ft 437 kts 167°
2026-05-06 13:11 52.32278 19.40162 36747 ft 438 kts 167°
2026-05-06 13:12 52.26515 19.43132 36745 ft 438 kts 167°
2026-05-06 13:12 52.20699 19.46122 36748 ft 438 kts 167°
2026-05-06 13:13 52.14875 19.49107 36746 ft 439 kts 167°
2026-05-06 13:13 52.09043 19.52088 36748 ft 439 kts 167°
2026-05-06 13:14 52.03207 19.55062 36757 ft 440 kts 167°
2026-05-06 13:14 51.97359 19.58035 36760 ft 440 kts 167°
2026-05-06 13:15 51.91503 19.61004 36760 ft 441 kts 167°
2026-05-06 13:15 51.85679 19.63949 36763 ft 441 kts 167°
2026-05-06 13:16 51.79808 19.66909 36766 ft 442 kts 168°
2026-05-06 13:16 51.73931 19.69865 36773 ft 442 kts 167°
2026-05-06 13:17 51.68061 19.72808 36769 ft 442 kts 167°
2026-05-06 13:17 51.62174 19.75753 36765 ft 442 kts 168°
2026-05-06 13:18 51.56317 19.78674 36772 ft 443 kts 168°
2026-05-06 13:18 51.50427 19.81604 36766 ft 443 kts 168°
2026-05-06 13:19 51.44530 19.84530 36764 ft 443 kts 168°
2026-05-06 13:19 51.38631 19.87450 36769 ft 443 kts 168°
2026-05-06 13:20 51.32740 19.90444 36779 ft 445 kts 166°
2026-05-06 13:20 51.26892 19.93718 36779 ft 445 kts 165°
2026-05-06 13:21 51.21046 19.97027 36771 ft 445 kts 166°
2026-05-06 13:21 51.15235 20.00272 36774 ft 445 kts 166°
2026-05-06 13:22 51.09382 20.03509 36790 ft 445 kts 166°
2026-05-06 13:22 51.03531 20.06731 36791 ft 445 kts 166°
2026-05-06 13:23 50.97671 20.09948 36795 ft 445 kts 166°
2026-05-06 13:23 50.91813 20.13156 36793 ft 445 kts 166°
2026-05-06 13:24 50.85949 20.16360 36794 ft 445 kts 166°
2026-05-06 13:24 50.80076 20.19560 36794 ft 446 kts 166°
2026-05-06 13:25 50.74206 20.22750 36804 ft 446 kts 166°
2026-05-06 13:25 50.68331 20.25934 36808 ft 446 kts 166°
2026-05-06 13:26 50.62496 20.29088 36807 ft 447 kts 166°
2026-05-06 13:26 50.56603 20.32266 36809 ft 447 kts 166°
2026-05-06 13:27 50.50707 20.35436 36820 ft 448 kts 166°
2026-05-06 13:27 50.44805 20.38602 36815 ft 448 kts 166°
2026-05-06 13:28 50.38892 20.41765 36815 ft 449 kts 166°
2026-05-06 13:28 50.32972 20.44923 36821 ft 449 kts 166°
2026-05-06 13:29 50.27049 20.48075 36820 ft 449 kts 166°
2026-05-06 13:29 50.21191 20.51185 36822 ft 450 kts 166°
2026-05-06 13:30 50.15260 20.54326 36820 ft 450 kts 166°
2026-05-06 13:30 50.09333 20.57465 36823 ft 450 kts 165°
2026-05-06 13:31 50.03450 20.60839 36828 ft 451 kts 163°
2026-05-06 13:31 49.97575 20.64311 36831 ft 451 kts 163°
2026-05-06 13:32 49.91693 20.67756 36825 ft 451 kts 163°
2026-05-06 13:32 49.85810 20.71167 36838 ft 451 kts 163°
2026-05-06 13:33 49.79963 20.74541 36838 ft 452 kts 163°
2026-05-06 13:33 49.74065 20.77935 36841 ft 452 kts 163°
2026-05-06 13:34 49.68162 20.81324 36841 ft 452 kts 163°
2026-05-06 13:34 49.62263 20.84703 36850 ft 452 kts 163°
2026-05-06 13:35 49.56354 20.88078 36851 ft 453 kts 164°
2026-05-06 13:35 49.50432 20.91453 36856 ft 453 kts 163°
2026-05-06 13:36 49.44508 20.94820 36857 ft 454 kts 164°
2026-05-06 13:36 49.38580 20.98182 36866 ft 454 kts 164°
2026-05-06 13:37 49.32639 21.01476 36866 ft 453 kts 167°
2026-05-06 13:37 49.26633 21.04101 36872 ft 451 kts 169°
2026-05-06 13:38 49.20570 21.06580 36879 ft 451 kts 169°
2026-05-06 13:38 49.14503 21.09085 36876 ft 452 kts 169°
2026-05-06 13:39 49.08438 21.11623 36880 ft 452 kts 168°
2026-05-06 13:39 49.02365 21.14172 36878 ft 453 kts 168°
2026-05-06 13:40 48.96291 21.16718 36904 ft 453 kts 169°
2026-05-06 13:40 48.90206 21.19261 36887 ft 453 kts 169°
2026-05-06 13:41 48.84122 21.21796 36905 ft 454 kts 169°
2026-05-06 13:41 48.78022 21.24331 36904 ft 454 kts 169°
2026-05-06 13:42 48.71924 21.26859 36909 ft 454 kts 169°
2026-05-06 13:42 48.65857 21.29368 36909 ft 455 kts 169°
2026-05-06 13:43 48.59755 21.31886 36912 ft 455 kts 169°
2026-05-06 13:43 48.53642 21.34401 36914 ft 455 kts 169°
2026-05-06 13:44 48.47521 21.36913 36905 ft 456 kts 169°
2026-05-06 13:44 48.41391 21.39423 36904 ft 456 kts 169°
2026-05-06 13:45 48.35265 21.41924 36904 ft 456 kts 169°
2026-05-06 13:45 48.26088 21.45660 36908 ft 457 kts 169°
2026-05-06 13:46 48.19950 21.48151 36925 ft 457 kts 169°
2026-05-06 13:46 48.13801 21.50641 36930 ft 457 kts 169°
2026-05-06 13:47 48.07650 21.53125 36935 ft 457 kts 169°
2026-05-06 13:47 48.01501 21.55602 36938 ft 458 kts 169°
2026-05-06 13:48 47.95345 21.58076 36937 ft 458 kts 169°
2026-05-06 13:48 47.89240 21.60524 36937 ft 458 kts 169°
2026-05-06 13:49 47.83087 21.62984 36936 ft 458 kts 169°
2026-05-06 13:49 47.76938 21.65436 36934 ft 458 kts 169°
2026-05-06 13:50 47.70777 21.67888 36937 ft 458 kts 169°
2026-05-06 13:50 47.64617 21.70333 36940 ft 458 kts 169°
2026-05-06 13:51 47.58459 21.72771 36942 ft 458 kts 169°
2026-05-06 13:51 47.52291 21.75208 36940 ft 459 kts 169°
2026-05-06 13:52 47.46113 21.77643 36939 ft 459 kts 169°
2026-05-06 13:52 47.39979 21.80054 36943 ft 459 kts 169°
2026-05-06 13:53 47.33796 21.82480 36942 ft 460 kts 169°
2026-05-06 13:53 47.27609 21.84902 36958 ft 460 kts 169°
2026-05-06 13:54 47.21430 21.87396 36960 ft 461 kts 168°
2026-05-06 13:54 47.15275 21.90110 36963 ft 462 kts 168°
2026-05-06 13:55 47.09114 21.92786 36969 ft 462 kts 168°
2026-05-06 13:55 47.02940 21.95448 36962 ft 463 kts 168°
2026-05-06 13:56 46.96763 21.98111 36965 ft 463 kts 168°
2026-05-06 13:56 46.90612 22.00758 36974 ft 463 kts 168°
2026-05-06 13:57 46.84424 22.03415 36973 ft 464 kts 168°
2026-05-06 13:57 46.78232 22.06068 36968 ft 464 kts 168°
2026-05-06 13:58 46.73076 22.08272 36964 ft 465 kts 168°
2026-05-06 13:58 46.66868 22.10915 36960 ft 465 kts 168°
2026-05-06 13:59 46.60651 22.13545 36959 ft 465 kts 168°
2026-05-06 13:59 46.54429 22.16172 36968 ft 466 kts 168°
2026-05-06 14:00 46.48197 22.18799 36961 ft 467 kts 168°
2026-05-06 14:00 46.41953 22.21426 36960 ft 467 kts 168°
2026-05-06 14:01 46.35714 22.24045 36966 ft 467 kts 168°
2026-05-06 14:01 46.29474 22.26658 36960 ft 467 kts 168°
2026-05-06 14:02 46.23272 22.29248 36964 ft 466 kts 168°
2026-05-06 14:02 46.17033 22.31848 36966 ft 467 kts 168°
2026-05-06 14:03 46.10785 22.34445 36957 ft 467 kts 168°
2026-05-06 14:03 46.04549 22.37031 36969 ft 466 kts 168°
2026-05-06 14:04 45.98313 22.39611 36961 ft 467 kts 168°
2026-05-06 14:04 45.92061 22.42192 36960 ft 467 kts 168°
2026-05-06 14:05 45.85818 22.44763 36969 ft 467 kts 168°
2026-05-06 14:05 45.79601 22.47316 36966 ft 468 kts 168°
2026-05-06 14:06 45.73286 22.49905 36963 ft 469 kts 168°
2026-05-06 14:06 45.67043 22.52458 36959 ft 470 kts 168°
2026-05-06 14:07 45.60754 22.55025 36974 ft 470 kts 168°
2026-05-06 14:07 45.54456 22.57589 36977 ft 470 kts 168°
2026-05-06 14:08 45.48156 22.60147 36964 ft 471 kts 168°
2026-05-06 14:08 45.41849 22.62701 36976 ft 472 kts 168°
2026-05-06 14:09 45.35524 22.65258 36988 ft 473 kts 168°
2026-05-06 14:09 45.29194 22.67811 36993 ft 473 kts 168°
2026-05-06 14:10 45.22869 22.70356 36968 ft 472 kts 167°
2026-05-06 14:10 45.16551 22.72893 36987 ft 472 kts 168°
2026-05-06 14:11 45.10227 22.75425 36984 ft 472 kts 167°
2026-05-06 14:11 45.03942 22.77937 36980 ft 472 kts 167°
2026-05-06 14:12 44.97619 22.80458 36980 ft 472 kts 167°
2026-05-06 14:12 44.91295 22.82975 36974 ft 472 kts 167°
2026-05-06 14:13 44.84964 22.85486 36978 ft 473 kts 168°
2026-05-06 14:13 44.78619 22.87990 36965 ft 473 kts 167°
2026-05-06 14:14 44.72269 22.90491 36969 ft 474 kts 167°
2026-05-06 14:14 44.65922 22.92986 36970 ft 474 kts 167°
2026-05-06 14:15 44.59564 22.95481 36969 ft 475 kts 167°
2026-05-06 14:15 44.53199 22.97973 36970 ft 475 kts 167°
2026-05-06 14:16 44.46867 23.00446 36967 ft 476 kts 167°
2026-05-06 14:16 44.40489 23.02934 36970 ft 476 kts 167°
2026-05-06 14:17 44.34101 23.05420 36961 ft 476 kts 167°
2026-05-06 14:17 44.27718 23.07899 36970 ft 476 kts 167°
2026-05-06 14:18 44.21327 23.10376 36963 ft 477 kts 167°
2026-05-06 14:18 44.14931 23.12849 36966 ft 477 kts 167°
2026-05-06 14:19 44.08526 23.15320 36968 ft 476 kts 167°
2026-05-06 14:19 44.02139 23.17778 36964 ft 476 kts 167°
2026-05-06 14:20 43.95747 23.20233 36962 ft 476 kts 167°
2026-05-06 14:20 43.89351 23.22685 36964 ft 477 kts 167°
2026-05-06 14:21 43.82994 23.25116 36965 ft 477 kts 167°
2026-05-06 14:21 43.76584 23.27498 36958 ft 477 kts 168°
2026-05-06 14:22 43.70161 23.29841 36964 ft 477 kts 168°
2026-05-06 14:22 43.63737 23.32186 36961 ft 477 kts 168°
2026-05-06 14:23 43.57309 23.34534 36964 ft 477 kts 168°
2026-05-06 14:23 43.50884 23.36880 36969 ft 477 kts 168°
2026-05-06 14:24 43.44458 23.39221 36970 ft 478 kts 168°
2026-05-06 14:24 43.38067 23.41544 36969 ft 478 kts 168°
2026-05-06 14:25 43.31639 23.43875 36980 ft 478 kts 168°
2026-05-06 14:25 43.25209 23.46201 36982 ft 478 kts 168°
2026-05-06 14:26 43.18780 23.48522 36989 ft 478 kts 168°
2026-05-06 14:26 43.12334 23.50844 36986 ft 479 kts 168°
2026-05-06 14:27 43.05890 23.53161 36984 ft 479 kts 168°
2026-05-06 14:27 42.99480 23.55460 36994 ft 479 kts 168°
2026-05-06 14:28 42.93036 23.57767 36997 ft 479 kts 168°
2026-05-06 14:28 42.86586 23.60071 36993 ft 479 kts 168°
2026-05-06 14:29 42.80134 23.62370 37003 ft 479 kts 168°
2026-05-06 14:29 42.73680 23.64665 36993 ft 479 kts 168°
2026-05-06 14:30 42.67220 23.66958 36998 ft 479 kts 168°
2026-05-06 14:30 42.60765 23.69245 37012 ft 479 kts 168°
2026-05-06 14:31 42.54326 23.71590 36996 ft 480 kts 166°
2026-05-06 14:31 42.47928 23.74243 37016 ft 481 kts 165°
2026-05-06 14:32 42.41537 23.76944 37022 ft 481 kts 165°
2026-05-06 14:32 42.35140 23.79601 37026 ft 481 kts 165°
2026-05-06 14:33 42.28771 23.82214 37033 ft 481 kts 165°
2026-05-06 14:33 42.22323 23.84847 37027 ft 481 kts 165°
2026-05-06 14:34 42.15948 23.87445 37033 ft 481 kts 165°
2026-05-06 14:34 42.09536 23.90055 37032 ft 481 kts 165°
2026-05-06 14:35 42.03108 23.92667 37037 ft 481 kts 165°
2026-05-06 14:35 41.96694 23.95268 37035 ft 482 kts 165°
2026-05-06 14:36 41.90262 23.97869 37049 ft 482 kts 165°
2026-05-06 14:36 41.83869 24.00450 37038 ft 483 kts 165°
2026-05-06 14:37 41.77395 24.03058 37043 ft 483 kts 166°
2026-05-06 14:37 41.70994 24.05631 37046 ft 483 kts 165°
2026-05-06 14:38 41.64560 24.08213 37039 ft 483 kts 165°
2026-05-06 14:38 41.58118 24.10793 37037 ft 483 kts 165°
2026-05-06 14:39 41.51724 24.13563 37039 ft 484 kts 161°
2026-05-06 14:39 41.45450 24.16827 37038 ft 484 kts 160°
2026-05-06 14:40 41.39228 24.20134 37035 ft 485 kts 160°
2026-05-06 14:40 41.32951 24.23422 37030 ft 485 kts 161°
2026-05-06 14:41 41.26660 24.26676 37029 ft 485 kts 161°
2026-05-06 14:41 41.20363 24.29917 37014 ft 485 kts 161°
2026-05-06 14:42 41.14081 24.33145 37046 ft 484 kts 161°
2026-05-06 14:42 41.07785 24.36374 37050 ft 485 kts 161°
2026-05-06 14:43 41.01475 24.39605 37048 ft 486 kts 161°
2026-05-06 14:43 40.95155 24.42835 37041 ft 487 kts 161°
2026-05-06 14:44 40.88821 24.46065 37049 ft 488 kts 161°
2026-05-06 14:45 40.80384 24.50357 37047 ft 488 kts 161°
2026-05-06 14:45 40.74036 24.53578 37048 ft 489 kts 161°
2026-05-06 14:46 40.67686 24.56794 37053 ft 489 kts 161°
2026-05-06 14:46 40.61333 24.60005 37053 ft 489 kts 161°
2026-05-06 14:47 40.54976 24.63211 37046 ft 489 kts 161°
2026-05-06 14:47 40.48610 24.66416 37048 ft 489 kts 161°
2026-05-06 14:48 40.42251 24.69610 37056 ft 489 kts 161°
2026-05-06 14:48 40.35939 24.72775 37051 ft 489 kts 161°
2026-05-06 14:49 40.29580 24.75956 37052 ft 489 kts 161°
2026-05-06 14:49 40.23215 24.79135 37057 ft 489 kts 161°
2026-05-06 14:50 40.16863 24.82299 37056 ft 489 kts 161°
2026-05-06 14:50 40.10499 24.85464 37054 ft 489 kts 161°
2026-05-06 14:51 40.04145 24.88618 37053 ft 489 kts 161°
2026-05-06 14:51 39.97779 24.91771 37054 ft 489 kts 161°
2026-05-06 14:52 39.91401 24.94924 37053 ft 490 kts 161°
2026-05-06 14:52 39.85026 24.98069 37054 ft 490 kts 161°
2026-05-06 14:53 39.78688 25.01190 37056 ft 490 kts 161°
2026-05-06 14:53 39.72303 25.04329 37057 ft 490 kts 161°
2026-05-06 14:54 39.65922 25.07459 37060 ft 491 kts 161°
2026-05-06 14:54 39.59526 25.10593 37063 ft 491 kts 161°
2026-05-06 14:55 39.53266 25.14177 37060 ft 492 kts 156°
2026-05-06 14:55 39.47088 25.18005 37062 ft 492 kts 156°
2026-05-06 14:56 39.40899 25.21824 37065 ft 492 kts 156°
2026-05-06 14:56 39.34694 25.25596 37057 ft 492 kts 157°
2026-05-06 14:57 39.28485 25.29340 37058 ft 492 kts 157°
2026-05-06 14:57 39.22269 25.33080 37068 ft 492 kts 157°
2026-05-06 14:58 39.16056 25.36812 37069 ft 492 kts 157°
2026-05-06 14:58 39.09883 25.40514 37060 ft 492 kts 157°
2026-05-06 14:59 39.03630 25.44257 37071 ft 493 kts 157°
2026-05-06 14:59 38.97446 25.47952 37072 ft 493 kts 157°
2026-05-06 15:00 38.91200 25.51677 37081 ft 493 kts 157°